Regional Weather Roundup
Issued by NWS Goodland, KS

Home | Current Version | Previous Version | Graphics & Text | Print | Product List | Glossary On
Versions: 1 2 3 4 5 6 7 8 9 10 11 12 13 14 15 16 17 18 19 20 21 22 23 24 25 26 27 28 29 30 31 32 33 34 35 36 37 38 39 40 41 42 43 44 45 46 47 48 49 50
000
ASUS43 KGLD 281408
RWRGLD

GOODLAND FORECAST AREA HOURLY WEATHER ROUNDUP
NATIONAL WEATHER SERVICE GOODLAND KS
800 AM MDT FRI APR 28 2017

...OFFICIAL OBSERVATIONS...

CITY           SKY/WX    TMP DP  RH WIND       PRES   REMARKS
GOODLAND KS    CLOUDY    41  39  93 W13       29.67R
HILL CITY KS   SUNNY     48  44  86 W13       29.62R
IMPERIAL NEB   CLOUDY    36  34  92 NE9       29.70R
MCCOOK NEB     LGT RAIN  43  42  97 N15       29.65R
AKRON CO       SUNNY     40  35  83 W8        29.67R
BURLINGTON CO  NOT AVBL
LIMON CO       SUNNY     38  31  76 W7        29.67S
$$

...UNOFFICIAL OBSERVATIONS...

CITY           SKY/WX    TMP DP  RH WIND       PRES   REMARKS
LENORA KS        N/A     46  32  58 MISG        N/A
NORTON KS      CLOUDY    46  45  93 SE5       29.61R
SHARON SPRINGS   N/A     44  43  95 W9          N/A
KIT CARSON CO    N/A     43  39  86 CALM        N/A
YUMA CO        CLOUDY    37  36  93 NW6       29.67R
$$




USA.gov is the U.S. government's official web portal to all federal, state and local government web resources and services.